Regional Weather Roundup
Issued by NWS Goodland, KS

Home | Current Version | Previous Version | Graphics & Text | Print | Product List | Glossary On
Versions: 1 2 3 4 5 6 7 8 9 10 11 12 13 14 15 16 17 18 19 20 21 22 23 24 25 26 27 28 29 30 31 32 33 34 35 36 37 38 39 40 41 42 43 44 45 46 47 48 49 50
956
ASUS43 KGLD 290408
RWRGLD

GOODLAND FORECAST AREA HOURLY WEATHER ROUNDUP
NATIONAL WEATHER SERVICE GOODLAND KS
1000 PM MDT THU JUL 28 2016

...OFFICIAL OBSERVATIONS...

CITY           SKY/WX    TMP DP  RH WIND       PRES   REMARKS
GOODLAND KS    CLOUDY    66  60  81 NE9       30.15S
HILL CITY KS   LGT RAIN  69  67  93 SW3       30.11R FOG
IMPERIAL NEB   CLEAR     64  60  87 E6        30.14R
MCCOOK NEB     CLEAR     64  60  87 N5        30.11R
AKRON CO       CLOUDY    64  59  83 SE8       30.20R
BURLINGTON CO  CLOUDY    68  61  78 NE13      30.17F
LIMON CO       CLOUDY    64  61  90 SE15      30.23R
$$

...UNOFFICIAL OBSERVATIONS...

CITY           SKY/WX    TMP DP  RH WIND       PRES   REMARKS
LENORA KS        N/A     69  32  25 MISG        N/A
NORTON KS      CLEAR     68  63  83 N6        30.10R
SHARON SPRINGS   N/A     69  64  83 NE8         N/A
KIT CARSON CO    N/A     67  61  81 MISG        N/A
YUMA CO          N/A     67  61  80 SE7G14      N/A
$$




USA.gov is the U.S. government's official web portal to all federal, state and local government web resources and services.